SCP
0 0 0 0 0 0 0 0 0 0 0 0 0 0 0 0 0 0 0 0 0 0 0 0 0 0 0 0 0 0 0 0 0 0 0 0 0 0 0 0 0 0 0 0
0 0 0 0 0 0 0 0 0 0 0 0 0 0 0 0 0 0 0 0 0 0 0 0 0 0 0 0 0 0 0 0 0 0 0 0 0 0 0 0 0 0 0 0
0 0 0 0 0 0 0 0 0 0 0 0 0 -0 0 0 0 0 0 0 0 0 0 0 0 0 0 0 0 0 0 0 0 0 0 0 0 0 0 0 0 0 0 0
0 0 0 0 0 0 0 0 0 0 0 0 0 -0 -0 0 0 0 0 0 0 0 0 0 0 0 0 0 0 0 0 0 0 0 0 0 0 0 0 0 0 0 0 0
0 0 0 0 0 0 0 0 0 0 0 0 0 0 -0 -0 0 0 0 0 0 0 0 0 0 0 0 0 0 0 0 0 0 0 0 0 0 0 0 0 0 0 0 0
0 0 0 0 0 0 0 0 0 0 0 0 0 0 -0 -0 -0 -0 0 0 0 0 0 0 0 0 0 0 0 0 0 0 0 0 0 0 0 0 0 0 0 0 0 0
0 0 0 0 0 0 0 0 0 0 0 0 0 0 0 0 0 0 0 0 0 0 0 0 0 0 0 0 0 0 0 0 0 0 0 0 0 0 0 0 0 0 0 0
0 0 0 0 0 0 0 0 0 0 0 0 0 0 0 0 0 0 0 0 0 0 0 0 0 0 0 0 0 0 0 0 0 0 0 0 0 0 0 0 0 0 0 0
0 0 0 0 0 0 0 0 0 0 0 0 0 0 0 0 0 0 0 0 0 0 0 0 -0 0 0 0 0 0 0 0 0 0 0 0 0 0 0 0 0 0 0 0
0 0 0 0 0 0 0 0 0 0 0 0 0 0 0 0 0 0 0 0 0 0 0 0 0 0 0 0 0 0 0 0 0 0 0 0 0 0 0 0 0 0 0 0
0 0 0 0 0 0 0 0 0 0 0 0 0 0 0 0 0 0 0 0 0 0 0 0 0 0 0 0 0 0 0 0 0 0 0 0 0 0 0 0 0 0 0 0
0 0 0 0 0 0 0 0 0 0 0 0 0 0 0 0 0 0 0 0 0 0 0 0 0 0 0 0 0 0 0 0 0 0 0 0 0 0 0 0 0 0 0 0
0 0 0 0 0 0 0 0 0 0 0 0 0 0 0 0 0 0 0 0 0 0 0 0 0 0 0 0 0 0 0 0 0 0 0 0 0 0 0 0 0 0 0 0
0 0 0 0 0 0 0 0 0 0 0 0 0 0 0 0 0 0 0 0 0 0 0 0 0 0 0 0 0 0 0 0 0 0 0 0 0 0 0 0 0 0 0 0
0 0 0 0 0 0 0 0 0 0 0 0 0 0 0 0 0 0 0 -0 -0 0 0 0 0 0 0 0 0 0 0 0 0 0 0 0 0 0 0 0 0 0 0 0
-0 0 0 0 0 0 0 0 0 0 0 0 0 0 0 0 0 0 0 0 0 0 0 0 0 0 0 0 0 0 0 0 0 0 0 0 0 0 0 0 0 0 0 0
0 -0 -0 0 0 0 0 0 0 0 0 0 0 0 0 0 0 0 0 0 0 0 0 0 0 0 0 0 0 0 0 0 0 0 0 0 0 0 0 0 0 0 0 0
0 0 -0 -0 0 0 0 0 0 0 0 0 0 0 0 0 0 0 0 0 0 0 0 0 0 0 0 0 0 0 0 0 0 0 0 0 0 0 0 0 0 0 0 0
0 0 0 0 0 0 0 0 0 0 0 0 -0 0 0 0 0 0 0 0 0 0 0 0 0 -0 -0 -0 -0 -0 0 -0 -0 0 0 0 0 0 0 0 0 0 0 0
0 0 0 0 0 -0 -0 0 0 0 0 0 0 0 0 0 0 0 0 0 0 0 0 0 0 0 0 0 0 0 0 0 0 0 0 0 0 0 0 0 0 0 0 0
0 0 0 0 0 0 0 0 0 0 0 0 0 0 0 0 0 0 0 0 0 0 0 0 0 0 0 0 0 0 0 0 0 0 0 0 0 0 0 0 0 0 0 0
0 0 0 0 0 0 0 0 0 0 0 0 0 0 0 0 0 0 0 0 0 0 0 0 -0 -0 0 0 0 0 0 0 0 0 0 0 0 0 0 0 0 0 0 0
0 0 0 0 0 0 0 0 0 0 0 0 0 0 0 0 0 0 0 0 0 0 0 0 0 -0 0 0 0 0 0 0 0 0 0 0 0 0 0 0 0 0 0 0
0 0 0 0 0 0 0 0 0 0 0 0 0 0 0 0 0 0 0 0 0 0 0 0 0 0 0 0 0 0 0 0 0 0 0 0 0 0 0 0 0 0 0 0
0 0 0 0 0 0 0 0 0 0 0 0 0 0 0 0 0 0 0 0 0 0 0 0 0 0 0 0 0 0 0 0 0 0 0 0 0 0 0 0 0 0 0 0
0 0 0 0 0 0 0 0 0 0 0 0 0 0 0 0 0 0 0 0 0 0 0 0 0 0 0 0 0 0 0 0 0 0 0 0 0 0 0 0 0 0 0 0
Wind_Speed_500mb
6 8 13 20 16 8 11 6 5 6 7 9 15 15 22 45 46 55 56 61 63 63 61 55 51 50 53 59 63 64 69 77 80 87 86 86 80 77 80 76 71 68 66 69
8 8 18 10 6 8 5 4 8 8 1 6 10 22 21 25 42 64 67 72 73 71 68 63 58 58 59 59 64 70 71 75 79 85 87 88 83 82 80 80 79 77 73 73
13 10 18 12 9 11 8 12 9 12 3 5 7 17 12 13 25 43 41 42 49 50 47 41 46 53 55 61 65 73 72 72 75 80 87 92 91 91 88 91 90 88 84 78
10 12 7 9 8 10 8 9 7 5 6 7 3 12 10 12 19 14 59 64 59 47 44 41 36 39 49 56 54 67 78 78 74 78 84 89 92 94 90 88 88 88 88 82
14 9 14 11 12 15 11 7 5 3 5 4 3 3 15 5 12 27 31 48 35 28 19 14 17 22 25 29 36 45 64 79 74 71 76 81 86 86 85 80 83 89 88 84
12 3 8 15 4 13 16 12 15 9 5 8 16 16 10 9 13 10 7 9 6 7 6 3 8 10 11 21 28 34 43 64 70 67 69 71 75 80 80 80 81 80 84 89
4 4 1 7 12 7 10 14 3 6 4 13 4 2 14 13 18 13 9 13 11 6 10 12 10 9 16 21 23 27 33 44 58 62 62 65 70 72 74 73 74 75 76 78
14 9 15 9 15 19 17 18 12 15 8 9 1 14 10 13 16 26 10 17 16 11 12 12 13 20 22 18 16 20 26 35 43 50 53 56 61 63 63 62 65 69 72 72
13 13 4 7 9 24 12 13 12 12 5 7 9 13 20 11 17 17 19 17 17 12 8 8 11 16 19 19 17 17 20 26 35 40 42 45 45 48 49 49 54 60 64 65
12 1 2 4 6 2 13 15 8 5 5 8 9 9 12 3 14 12 20 18 22 22 19 13 13 15 15 17 18 16 17 16 15 15 16 21 26 34 38 43 49 51 53 57
8 8 2 8 14 19 6 6 4 10 11 11 4 12 15 22 9 17 9 17 25 24 20 17 21 16 12 12 12 9 15 15 9 4 7 15 24 31 37 42 45 48 51 53
6 8 10 15 5 7 5 20 19 12 11 8 7 19 1 12 19 20 23 32 39 40 32 22 22 24 20 14 4 18 17 12 12 19 27 25 28 38 45 46 46 49 53 54
11 7 4 11 6 2 8 3 9 7 7 17 12 17 6 18 20 17 31 43 44 46 24 12 14 17 19 19 14 7 20 35 31 29 32 36 42 46 51 55 53 54 55 53
10 4 5 22 0 4 9 2 5 9 8 20 18 15 6 6 13 24 32 35 36 16 8 4 6 9 13 19 23 28 32 37 40 43 43 44 48 54 57 58 60 60 57 56
11 4 5 5 2 4 3 4 8 7 8 15 16 18 1 8 17 37 39 32 6 12 6 8 13 19 23 26 28 32 37 40 44 52 55 56 53 58 62 65 67 65 62 58
9 5 9 7 17 14 9 16 15 14 11 13 12 32 15 29 24 14 16 19 20 19 22 24 23 25 27 31 36 38 45 46 46 52 57 58 61 65 67 63 63 63 61 60
14 11 10 7 12 12 14 32 29 13 13 14 17 22 12 5 11 5 14 14 18 22 26 29 31 33 35 38 43 47 49 52 55 57 57 61 65 63 57 54 56 61 63 62
12 9 6 6 6 12 11 9 28 32 18 25 21 3 9 8 3 15 15 16 18 24 31 35 37 39 39 40 40 44 47 53 58 61 62 57 60 59 57 59 60 61 63 63
8 12 5 8 10 10 14 9 14 20 23 29 30 7 7 4 12 14 7 17 20 24 30 35 40 45 47 50 50 49 49 52 53 55 59 61 59 58 56 55 53 53 56 57
4 4 9 6 9 16 10 7 11 12 16 9 14 10 6 6 4 5 9 20 20 28 33 38 43 45 48 51 54 56 56 54 52 50 53 55 56 56 55 52 52 53 54 53
7 3 13 9 6 14 14 21 6 7 9 20 20 16 11 6 7 12 23 24 33 40 46 50 55 56 54 53 53 53 55 54 53 48 45 48 53 53 50 51 50 49 51 52
14 14 11 6 3 21 18 7 16 10 20 21 12 2 10 18 22 28 34 43 47 54 58 63 66 65 59 54 53 51 50 50 51 53 51 44 43 45 47 49 49 50 50 49
5 12 12 16 14 2 21 9 25 25 22 12 5 17 18 31 39 41 44 47 51 57 64 67 69 67 57 53 50 50 49 49 49 52 51 51 48 44 41 43 42 43 44 44
7 6 6 7 7 9 19 9 10 9 8 8 15 17 29 38 42 48 51 49 54 60 60 55 51 52 53 51 49 51 53 50 51 52 53 54 55 51 46 41 37 36 35 33
10 12 10 7 4 10 5 4 7 17 18 27 39 39 39 40 50 53 56 55 56 49 41 41 39 37 38 42 47 51 54 56 54 54 54 55 54 49 45 40 35 32 29 26
13 11 8 8 13 0 13 17 21 26 31 36 39 44 42 43 51 51 54 56 52 44 42 41 42 44 44 45 47 48 50 51 53 56 52 48 46 44 39 32 29 29 23 22
Wind_Direction_500mb
147 108 191 203 201 143 148 148 186 237 213 153 232 250 264 276 286 281 271 266 262 258 259 255 252 251 250 245 242 239 236 234 234 232 233 234 236 236 235 239 241 242 241 236
48 220 221 205 183 192 177 237 240 295 331 153 280 266 254 257 262 266 272 277 272 268 266 259 250 247 248 248 246 241 240 238 237 238 240 240 240 241 240 238 241 242 242 241
163 226 200 165 183 174 211 201 220 218 40 300 332 286 261 279 260 274 266 274 275 269 268 264 254 248 247 245 246 244 243 242 240 239 239 238 239 240 242 241 241 244 244 244
220 240 126 162 188 148 205 202 182 191 85 245 54 286 289 259 277 288 280 275 272 276 275 272 264 253 248 246 248 249 245 243 241 239 241 244 245 245 247 244 239 239 244 243
232 205 190 184 193 169 220 169 157 92 127 49 287 320 277 296 278 262 270 278 283 293 279 269 265 259 252 242 243 248 246 242 242 243 245 248 249 252 255 253 251 246 244 246
198 291 176 194 117 156 145 79 41 50 59 284 196 185 269 217 218 281 300 26 37 57 72 34 320 293 249 245 250 248 242 241 241 244 247 252 252 253 254 255 256 252 247 246
41 225 255 145 86 42 87 84 341 333 354 237 67 249 240 258 244 224 306 26 22 330 286 278 279 284 286 278 257 245 235 237 238 242 249 253 253 255 258 261 261 259 255 251
161 258 168 193 173 168 184 161 169 198 205 260 92 239 246 258 293 260 289 324 323 289 277 273 278 290 294 284 254 239 235 234 237 244 250 253 254 256 258 259 260 260 259 259
167 245 227 181 153 151 195 210 168 104 26 50 235 293 306 317 276 292 20 68 47 34 4 316 295 302 296 281 270 252 243 237 235 242 248 250 253 255 257 259 260 261 262 263
217 248 108 179 131 41 163 161 77 10 153 258 259 262 224 314 264 22 33 56 60 46 34 30 10 334 313 301 296 267 242 230 224 225 239 255 261 260 260 259 259 263 264 264
181 145 289 120 212 169 141 180 128 132 158 192 257 257 216 227 134 135 155 48 35 23 21 32 21 3 330 303 283 227 164 129 111 33 336 319 289 270 262 261 262 264 267 266
205 181 182 200 249 216 221 204 177 186 220 237 167 255 70 136 123 106 61 44 21 4 4 19 32 24 7 338 249 150 120 80 343 305 292 281 293 282 271 267 267 265 266 268
350 218 62 351 349 24 197 180 210 106 75 204 159 255 32 108 84 33 351 341 336 348 329 354 28 30 22 20 12 297 301 312 313 306 304 289 278 286 283 276 269 267 267 268
44 5 250 231 229 87 174 88 18 183 182 222 225 239 182 14 344 326 329 338 330 339 354 348 333 333 326 319 313 306 302 300 297 293 289 290 289 288 289 281 272 268 267 267
135 153 52 52 77 90 178 223 262 235 235 201 253 263 293 322 293 299 316 342 4 351 350 334 328 323 314 306 301 296 293 289 283 282 283 285 283 281 281 277 272 268 267 269
192 170 160 235 202 206 229 249 244 229 251 272 267 274 197 246 281 317 3 15 23 13 353 352 343 334 327 319 312 310 308 304 297 292 289 285 282 282 280 275 270 266 268 270
178 149 158 248 182 194 274 236 203 202 191 182 227 264 250 169 127 77 65 35 16 2 356 352 347 340 332 321 312 309 308 306 304 299 292 288 287 283 279 276 271 270 271 270
151 153 180 155 114 221 237 302 207 207 226 214 247 256 74 73 103 127 73 35 6 357 353 352 348 342 337 332 324 317 309 302 298 298 296 291 287 283 280 276 274 274 272 270
153 154 180 167 194 304 293 221 172 184 250 229 244 170 113 88 151 188 45 17 1 349 346 343 341 341 340 334 327 323 321 314 310 305 299 292 286 282 279 277 275 271 268 267
236 346 170 144 183 209 229 276 125 130 262 166 133 120 108 83 107 252 315 334 339 338 337 336 332 328 326 326 327 327 321 321 318 312 306 299 293 287 283 280 278 274 272 269
143 246 208 186 202 277 235 234 1 141 241 140 135 150 168 172 212 290 313 319 326 329 330 329 326 323 318 315 315 319 324 320 317 315 309 302 295 289 285 281 278 275 271 266
164 159 202 134 168 256 182 118 172 167 135 144 146 125 319 309 305 310 314 317 321 322 322 321 318 317 314 309 308 311 316 319 319 317 315 310 300 293 290 286 282 276 271 267
212 186 178 185 204 143 176 115 142 140 156 180 211 323 322 323 322 319 315 307 308 311 311 310 310 310 307 304 305 307 312 314 316 316 316 311 304 295 288 283 278 275 272 267
263 172 172 99 257 188 146 128 180 201 279 324 297 307 310 305 308 310 312 309 307 308 309 305 304 305 305 302 302 302 304 307 308 307 305 304 301 295 288 280 274 267 260 257
200 145 171 270 154 133 238 127 25 316 299 297 303 301 300 296 302 310 309 309 306 305 301 300 305 308 309 310 311 309 306 304 302 299 299 299 297 292 285 277 264 250 239 232
183 175 173 217 143 323 271 324 319 308 307 309 311 307 304 299 295 296 301 303 302 300 302 301 302 305 309 308 308 306 304 302 299 297 295 293 289 285 277 263 250 235 220 211
Wind_Speed_850mb
6 8 13 20 16 8 11 6 5 6 7 9 15 15 22 45 46 55 56 61 63 63 61 55 51 50 53 59 63 64 69 77 80 87 86 86 80 77 80 76 71 68 66 69
8 8 18 10 6 8 5 4 8 8 1 6 10 22 21 25 42 64 67 72 73 71 68 63 58 58 59 59 64 70 71 75 79 85 87 88 83 82 80 80 79 77 73 73
13 10 18 12 9 11 8 12 9 12 3 5 7 17 12 13 25 43 41 42 49 50 47 41 46 53 55 61 65 73 72 72 75 80 87 92 91 91 88 91 90 88 84 78
10 12 7 9 8 10 8 9 7 5 6 7 3 12 10 12 19 14 59 64 59 47 44 41 36 39 49 56 54 67 78 78 74 78 84 89 92 94 90 88 88 88 88 82
14 9 14 11 12 15 11 7 5 3 5 4 3 3 15 5 12 27 31 48 35 28 19 14 17 22 25 29 36 45 64 79 74 71 76 81 86 86 85 80 83 89 88 84
12 3 8 15 4 13 16 12 15 9 5 8 16 16 10 9 13 10 7 9 6 7 6 3 8 10 11 21 28 34 43 64 70 67 69 71 75 80 80 80 81 80 84 89
4 4 1 7 12 7 10 14 3 6 4 13 4 2 14 13 18 13 9 13 11 6 10 12 10 9 16 21 23 27 33 44 58 62 62 65 70 72 74 73 74 75 76 78
14 9 15 9 15 19 17 18 12 15 8 9 1 14 10 13 16 26 10 17 16 11 12 12 13 20 22 18 16 20 26 35 43 50 53 56 61 63 63 62 65 69 72 72
13 13 4 7 9 24 12 13 12 12 5 7 9 13 20 11 17 17 19 17 17 12 8 8 11 16 19 19 17 17 20 26 35 40 42 45 45 48 49 49 54 60 64 65
12 1 2 4 6 2 13 15 8 5 5 8 9 9 12 3 14 12 20 18 22 22 19 13 13 15 15 17 18 16 17 16 15 15 16 21 26 34 38 43 49 51 53 57
8 8 2 8 14 19 6 6 4 10 11 11 4 12 15 22 9 17 9 17 25 24 20 17 21 16 12 12 12 9 15 15 9 4 7 15 24 31 37 42 45 48 51 53
6 8 10 15 5 7 5 20 19 12 11 8 7 19 1 12 19 20 23 32 39 40 32 22 22 24 20 14 4 18 17 12 12 19 27 25 28 38 45 46 46 49 53 54
11 7 4 11 6 2 8 3 9 7 7 17 12 17 6 18 20 17 31 43 44 46 24 12 14 17 19 19 14 7 20 35 31 29 32 36 42 46 51 55 53 54 55 53
10 4 5 22 0 4 9 2 5 9 8 20 18 15 6 6 13 24 32 35 36 16 8 4 6 9 13 19 23 28 32 37 40 43 43 44 48 54 57 58 60 60 57 56
11 4 5 5 2 4 3 4 8 7 8 15 16 18 1 8 17 37 39 32 6 12 6 8 13 19 23 26 28 32 37 40 44 52 55 56 53 58 62 65 67 65 62 58
9 5 9 7 17 14 9 16 15 14 11 13 12 32 15 29 24 14 16 19 20 19 22 24 23 25 27 31 36 38 45 46 46 52 57 58 61 65 67 63 63 63 61 60
14 11 10 7 12 12 14 32 29 13 13 14 17 22 12 5 11 5 14 14 18 22 26 29 31 33 35 38 43 47 49 52 55 57 57 61 65 63 57 54 56 61 63 62
12 9 6 6 6 12 11 9 28 32 18 25 21 3 9 8 3 15 15 16 18 24 31 35 37 39 39 40 40 44 47 53 58 61 62 57 60 59 57 59 60 61 63 63
8 12 5 8 10 10 14 9 14 20 23 29 30 7 7 4 12 14 7 17 20 24 30 35 40 45 47 50 50 49 49 52 53 55 59 61 59 58 56 55 53 53 56 57
4 4 9 6 9 16 10 7 11 12 16 9 14 10 6 6 4 5 9 20 20 28 33 38 43 45 48 51 54 56 56 54 52 50 53 55 56 56 55 52 52 53 54 53
7 3 13 9 6 14 14 21 6 7 9 20 20 16 11 6 7 12 23 24 33 40 46 50 55 56 54 53 53 53 55 54 53 48 45 48 53 53 50 51 50 49 51 52
14 14 11 6 3 21 18 7 16 10 20 21 12 2 10 18 22 28 34 43 47 54 58 63 66 65 59 54 53 51 50 50 51 53 51 44 43 45 47 49 49 50 50 49
5 12 12 16 14 2 21 9 25 25 22 12 5 17 18 31 39 41 44 47 51 57 64 67 69 67 57 53 50 50 49 49 49 52 51 51 48 44 41 43 42 43 44 44
7 6 6 7 7 9 19 9 10 9 8 8 15 17 29 38 42 48 51 49 54 60 60 55 51 52 53 51 49 51 53 50 51 52 53 54 55 51 46 41 37 36 35 33
10 12 10 7 4 10 5 4 7 17 18 27 39 39 39 40 50 53 56 55 56 49 41 41 39 37 38 42 47 51 54 56 54 54 54 55 54 49 45 40 35 32 29 26
13 11 8 8 13 0 13 17 21 26 31 36 39 44 42 43 51 51 54 56 52 44 42 41 42 44 44 45 47 48 50 51 53 56 52 48 46 44 39 32 29 29 23 22
Wind_Direction_850mb
147 108 191 203 201 143 148 148 186 237 213 153 232 250 264 276 286 281 271 266 262 258 259 255 252 251 250 245 242 239 236 234 234 232 233 234 236 236 235 239 241 242 241 236
48 220 221 205 183 192 177 237 240 295 331 153 280 266 254 257 262 266 272 277 272 268 266 259 250 247 248 248 246 241 240 238 237 238 240 240 240 241 240 238 241 242 242 241
163 226 200 165 183 174 211 201 220 218 40 300 332 286 261 279 260 274 266 274 275 269 268 264 254 248 247 245 246 244 243 242 240 239 239 238 239 240 242 241 241 244 244 244
220 240 126 162 188 148 205 202 182 191 85 245 54 286 289 259 277 288 280 275 272 276 275 272 264 253 248 246 248 249 245 243 241 239 241 244 245 245 247 244 239 239 244 243
232 205 190 184 193 169 220 169 157 92 127 49 287 320 277 296 278 262 270 278 283 293 279 269 265 259 252 242 243 248 246 242 242 243 245 248 249 252 255 253 251 246 244 246
198 291 176 194 117 156 145 79 41 50 59 284 196 185 269 217 218 281 300 26 37 57 72 34 320 293 249 245 250 248 242 241 241 244 247 252 252 253 254 255 256 252 247 246
41 225 255 145 86 42 87 84 341 333 354 237 67 249 240 258 244 224 306 26 22 330 286 278 279 284 286 278 257 245 235 237 238 242 249 253 253 255 258 261 261 259 255 251
161 258 168 193 173 168 184 161 169 198 205 260 92 239 246 258 293 260 289 324 323 289 277 273 278 290 294 284 254 239 235 234 237 244 250 253 254 256 258 259 260 260 259 259
167 245 227 181 153 151 195 210 168 104 26 50 235 293 306 317 276 292 20 68 47 34 4 316 295 302 296 281 270 252 243 237 235 242 248 250 253 255 257 259 260 261 262 263
217 248 108 179 131 41 163 161 77 10 153 258 259 262 224 314 264 22 33 56 60 46 34 30 10 334 313 301 296 267 242 230 224 225 239 255 261 260 260 259 259 263 264 264
181 145 289 120 212 169 141 180 128 132 158 192 257 257 216 227 134 135 155 48 35 23 21 32 21 3 330 303 283 227 164 129 111 33 336 319 289 270 262 261 262 264 267 266
205 181 182 200 249 216 221 204 177 186 220 237 167 255 70 136 123 106 61 44 21 4 4 19 32 24 7 338 249 150 120 80 343 305 292 281 293 282 271 267 267 265 266 268
350 218 62 351 349 24 197 180 210 106 75 204 159 255 32 108 84 33 351 341 336 348 329 354 28 30 22 20 12 297 301 312 313 306 304 289 278 286 283 276 269 267 267 268
44 5 250 231 229 87 174 88 18 183 182 222 225 239 182 14 344 326 329 338 330 339 354 348 333 333 326 319 313 306 302 300 297 293 289 290 289 288 289 281 272 268 267 267
135 153 52 52 77 90 178 223 262 235 235 201 253 263 293 322 293 299 316 342 4 351 350 334 328 323 314 306 301 296 293 289 283 282 283 285 283 281 281 277 272 268 267 269
192 170 160 235 202 206 229 249 244 229 251 272 267 274 197 246 281 317 3 15 23 13 353 352 343 334 327 319 312 310 308 304 297 292 289 285 282 282 280 275 270 266 268 270
178 149 158 248 182 194 274 236 203 202 191 182 227 264 250 169 127 77 65 35 16 2 356 352 347 340 332 321 312 309 308 306 304 299 292 288 287 283 279 276 271 270 271 270
151 153 180 155 114 221 237 302 207 207 226 214 247 256 74 73 103 127 73 35 6 357 353 352 348 342 337 332 324 317 309 302 298 298 296 291 287 283 280 276 274 274 272 270
153 154 180 167 194 304 293 221 172 184 250 229 244 170 113 88 151 188 45 17 1 349 346 343 341 341 340 334 327 323 321 314 310 305 299 292 286 282 279 277 275 271 268 267
236 346 170 144 183 209 229 276 125 130 262 166 133 120 108 83 107 252 315 334 339 338 337 336 332 328 326 326 327 327 321 321 318 312 306 299 293 287 283 280 278 274 272 269
143 246 208 186 202 277 235 234 1 141 241 140 135 150 168 172 212 290 313 319 326 329 330 329 326 323 318 315 315 319 324 320 317 315 309 302 295 289 285 281 278 275 271 266
164 159 202 134 168 256 182 118 172 167 135 144 146 125 319 309 305 310 314 317 321 322 322 321 318 317 314 309 308 311 316 319 319 317 315 310 300 293 290 286 282 276 271 267
212 186 178 185 204 143 176 115 142 140 156 180 211 323 322 323 322 319 315 307 308 311 311 310 310 310 307 304 305 307 312 314 316 316 316 311 304 295 288 283 278 275 272 267
263 172 172 99 257 188 146 128 180 201 279 324 297 307 310 305 308 310 312 309 307 308 309 305 304 305 305 302 302 302 304 307 308 307 305 304 301 295 288 280 274 267 260 257
200 145 171 270 154 133 238 127 25 316 299 297 303 301 300 296 302 310 309 309 306 305 301 300 305 308 309 310 311 309 306 304 302 299 299 299 297 292 285 277 264 250 239 232
183 175 173 217 143 323 271 324 319 308 307 309 311 307 304 299 295 296 301 303 302 300 302 301 302 305 309 308 308 306 304 302 299 297 295 293 289 285 277 263 250 235 220 211